Back to catalog

STARLINK-30530

AliveCommunicationsVLEO
NORAD 58005·PAYLOAD·🇺🇸 United States

Launched Oct 5, 2023 from Cape Canaveral Space Force Station

Loading…

Next Passes (next 24 hours)

TLE

FreshSource: CelesTrak SupGP

Epoch: Sep 14, 2026, 21:24 UTC

1 58005C 23153Q   26257.89215278  .00042518  00000+0  15398-2 0  2570
2 58005  43.0035  78.3856 0001713 273.8867 106.0869 15.27561857    13

Track STARLINK-30530 in real time with AllMySat

Download on the App Store